Cape Girardeau, MO

9:54 AM CDT on March 24, 2017 (GMT -0500)
Cape Girardeau Regional

Weather History for KCGI - May, 2012

Change the Weather History Date:

Wednesday, May 2, 2012

  Actual Average Record
Temperature  
Mean Temperature 80 °F 63 °F  
Max Temperature 89 °F 74 °F 89 °F (2012)
Min Temperature 70 °F 51 °F 33 °F (1961)
Degree Days  
Heating Degree Days 0 4  
Month to date heating degree days 0 8  
Since 1 July heating degree days 3327 4326  
Cooling Degree Days 15 2  
Month to date cooling degree days 25 4  
Year to date cooling degree days 132 35  
Growing Degree Days 30 (Base 50)    
Moisture  
Dew Point 64 °F    
Average Humidity 62    
Maximum Humidity 79    
Minimum Humidity 44    
Precipitation  
Precipitation 0.00 in 0.19 in 2.06 in (2008)
Month to date precipitation 0.00 0.38  
Year to date precipitation 9.34 16.02  
Sea Level Pressure  
Sea Level Pressure 29.93 in    
Wind  
Wind Speed 12 mph (SSW)    
Max Wind Speed 21 mph    
Max Gust Speed 29 mph    
Visibility 10 miles    
Events      
T = Trace of Precipitation, MM = Missing Value Source: NWS Daily Summary

Daily Weather History Graph

Daily Weather History Graph

Search for Another Location

Airport or City:

Trip Planner

Search our weather history database for the weather conditions in past years. The results will help you decide how hot, cold, wet, or windy it might be!

Date:

Astronomy

May. 02, 2012 Rise Set
Actual Time 6:01 AM CDT 7:49 PM CDT
Civil Twilight 5:33 AM CDT 8:17 PM CDT
Nautical Twilight 4:59 AM CDT 8:51 PM CDT
Astronomical Twilight 4:23 AM CDT 9:27 PM CDT
Moon 4:06 PM CDT (5/2) 3:26 AM CDT (5/2)
Length of Visible Light 14h 43m
Length of Day
13h 47m
Waxing Gibbous, 83% of the Moon is Illuminated
May 2
Waxing Gibbous
May 5
Full
May 12
Last Quarter
May 20
New
May 28
First Quarter

Hourly Weather History & Observations

Time (CDT) Temp. Heat Index Dew Point Humidity Pressure Visibility Wind Dir Wind Speed Gust Speed Precip Events Conditions
12:53 AM 75.9 °F - 64.0 °F 67% 29.89 in 10.0 mi South 15.0 mph 20.7 mph N/A   Clear
1:53 AM 73.9 °F - 64.0 °F 71% 29.88 in 10.0 mi South 11.5 mph 19.6 mph N/A   Clear
2:53 AM 73.9 °F - 64.0 °F 71% 29.88 in 10.0 mi South 11.5 mph 19.6 mph N/A   Clear
3:53 AM 73.0 °F - 64.0 °F 73% 29.89 in 10.0 mi SSW 10.4 mph 21.9 mph N/A   Clear
4:53 AM 73.0 °F - 64.0 °F 73% 29.91 in 10.0 mi South 13.8 mph 23.0 mph N/A   Clear
5:53 AM 71.1 °F - 64.0 °F 78% 29.93 in 10.0 mi South 10.4 mph 17.3 mph N/A   Clear
6:53 AM 71.1 °F - 64.0 °F 78% 29.95 in 10.0 mi South 9.2 mph - N/A   Clear
7:53 AM 73.9 °F - 64.9 °F 73% 29.98 in 10.0 mi SSW 10.4 mph 18.4 mph N/A   Clear
8:53 AM 77.0 °F - 64.9 °F 66% 29.98 in 10.0 mi SSW 12.7 mph - N/A   Clear
9:53 AM 80.1 °F 81.9 °F 64.9 °F 60% 29.99 in 10.0 mi SSW 12.7 mph 19.6 mph N/A   Clear
10:53 AM 82.9 °F 84.4 °F 64.0 °F 53% 29.98 in 10.0 mi SW 13.8 mph 24.2 mph N/A   Clear
11:53 AM 86.0 °F 87.3 °F 64.0 °F 48% 29.98 in 10.0 mi SSW 17.3 mph 24.2 mph N/A   Partly Cloudy
12:53 PM 87.1 °F 88.3 °F 64.0 °F 46% 29.97 in 10.0 mi SW 16.1 mph 21.9 mph N/A   Clear
1:53 PM 88.0 °F 89.3 °F 64.0 °F 45% 29.95 in 10.0 mi SW 13.8 mph 23.0 mph N/A   Scattered Clouds
2:53 PM 89.1 °F 90.3 °F 64.0 °F 43% 29.93 in 10.0 mi South 10.4 mph 20.7 mph N/A   Partly Cloudy
3:53 PM 88.0 °F 89.6 °F 64.9 °F 46% 29.91 in 10.0 mi South 10.4 mph 18.4 mph N/A   Scattered Clouds
4:53 PM 87.1 °F 88.3 °F 64.0 °F 46% 29.90 in 10.0 mi South 13.8 mph - N/A   Partly Cloudy
5:53 PM 86.0 °F 87.6 °F 64.9 °F 49% 29.90 in 10.0 mi South 10.4 mph - N/A   Clear
6:53 PM 82.9 °F 84.0 °F 63.0 °F 51% 29.90 in 10.0 mi South 9.2 mph - N/A   Clear
7:53 PM 80.1 °F 81.7 °F 64.0 °F 58% 29.92 in 10.0 mi South 9.2 mph - N/A   Clear
8:53 PM 80.1 °F 81.7 °F 64.0 °F 58% 29.94 in 10.0 mi South 9.2 mph - N/A   Clear
9:53 PM 81.0 °F 82.7 °F 64.9 °F 58% 29.95 in 10.0 mi SSW 17.3 mph 28.8 mph N/A   Scattered Clouds
10:53 PM 77.0 °F - 64.9 °F 66% 29.96 in 10.0 mi SW 9.2 mph - N/A   Clear
11:53 PM 73.9 °F - 63.0 °F 68% 29.96 in 10.0 mi South 6.9 mph - N/A   Clear